Weather History for Marietta, GA

Change the Weather History Date:

Friday, April 19, 2013

  Actual Average Record
Temperature  
Mean Temperature 58 °F -  
Max Temperature 72 °F 70 °F 86 °F (2002)
Min Temperature 45 °F 50 °F 35 °F (2001)
Degree Days  
Heating Degree Days 6    
Growing Degree Days 8 (Base 50)    
Moisture  
Dew Point 54 °F    
Average Humidity 86    
Maximum Humidity 100    
Minimum Humidity 67    
Precipitation  
Precipitation 0.75 in - - ()
Sea Level Pressure  
Sea Level Pressure 29.90 in    
Wind  
Wind Speed 12 mph (WSW)    
Max Wind Speed 20 mph    
Max Gust Speed 28 mph    
Visibility 8 miles    
Events Rain    
Averages and records for this station are not official NWS values.
T = Trace of Precipitation, MM = Missing Value Source: NWS Daily Summary

Daily Weather History Graph

Daily Weather History Graph

Search for Another Location

Airport:

Trip Planner

Search our weather history database for the weather conditions in past years. The results will help you decide how hot, cold, wet, or windy it might be!

Date:

Astronomy

Apr. 19, 2013 Rise Set
Actual Time 7:02 AM EDT 8:12 PM EDT
Civil Twilight 6:36 AM EDT 8:38 PM EDT
Nautical Twilight 6:05 AM EDT 9:09 PM EDT
Astronomical Twilight 5:33 AM EDT 9:41 PM EDT
Moon 2:12 PM EDT (4/19) 2:59 AM EDT (4/19)
Length of Visible Light 14h 02m
Length of Day
13h 10m
First Quarter, 61% of the Moon is Illuminated
Apr 19
First Quarter
Apr 25
Full
May 2
Last Quarter
May 9
New
May 18
First Quarter

Hourly Weather History & Observations

Time (EDT) Temp. Windchill Dew Point Humidity Pressure Visibility Wind Dir Wind Speed Gust Speed Precip Events Conditions
12:58 AM 72.1 °F - 60.4 °F 67% 29.88 in 10.0 mi South 10.4 mph - N/A   Partly Cloudy
1:58 AM 71.8 °F - 60.4 °F 67% 29.86 in 10.0 mi South 12.7 mph 23.0 mph N/A   Clear
2:58 AM 70.7 °F - 60.4 °F 70% 29.84 in 10.0 mi SSE 12.7 mph 23.0 mph N/A   Clear
3:58 AM 69.6 °F - 61.2 °F 74% 29.82 in 10.0 mi South 11.5 mph - N/A   Partly Cloudy
4:08 AM 69.8 °F - 60.8 °F 73% 29.84 in 10.0 mi SSE 12.7 mph 20.7 mph N/A   Mostly Cloudy
4:38 AM 69.8 °F - 62.6 °F 78% 29.83 in 10.0 mi South 8.1 mph - N/A   Overcast
4:58 AM 69.4 °F - 63.5 °F 81% 29.81 in 10.0 mi South 9.2 mph 21.9 mph N/A   Overcast
5:58 AM 69.3 °F - 64.4 °F 84% 29.81 in 10.0 mi South 9.2 mph 27.6 mph N/A   Overcast
6:58 AM 69.3 °F - 64.4 °F 84% 29.82 in 10.0 mi South 10.4 mph 21.9 mph N/A   Overcast
7:14 AM 69.8 °F - 64.4 °F 83% 29.85 in 10.0 mi South 10.4 mph 20.7 mph N/A Rain Light Rain
7:58 AM 69.8 °F - 64.9 °F 84% 29.83 in 10.0 mi South 12.7 mph 20.7 mph N/A   Overcast
8:58 AM 69.6 °F - 66.0 °F 88% 29.81 in 10.0 mi South 9.2 mph - 0.00 in   Overcast
9:26 AM 69.8 °F - 66.2 °F 88% 29.82 in 10.0 mi South 10.4 mph - N/A Rain Light Rain
9:58 AM 69.8 °F - 66.2 °F 88% 29.78 in 10.0 mi SSE 8.1 mph - N/A Rain Light Rain
10:16 AM 69.8 °F - 68.0 °F 94% 29.81 in 1.2 mi SSW 8.1 mph - N/A Rain Light Rain
10:28 AM 64.4 °F - 62.6 °F 94% 29.84 in 3.0 mi WNW 13.8 mph 25.3 mph N/A Rain Light Rain
10:41 AM 60.8 °F - 59.0 °F 94% 29.85 in 3.0 mi WNW 17.3 mph - N/A Rain Light Rain
10:58 AM 58.6 °F - 57.9 °F 97% 29.86 in 10.0 mi WNW 15.0 mph 24.2 mph 0.36 in Rain Light Rain
11:10 AM 57.2 °F - 57.2 °F 100% 29.89 in 7.0 mi WNW 19.6 mph 25.3 mph N/A Rain Light Rain
11:39 AM 57.2 °F - 55.4 °F 94% 29.89 in 7.0 mi WNW 16.1 mph - N/A Rain Light Rain
11:58 AM 55.4 °F - 54.3 °F 96% 29.89 in 5.0 mi WNW 13.8 mph - 0.15 in Rain Light Rain
12:43 PM 53.6 °F - 53.6 °F 100% 29.91 in 2.0 mi West 12.7 mph - N/A Rain Light Rain
12:52 PM 53.6 °F - 53.6 °F 100% 29.92 in 3.0 mi West 13.8 mph - N/A Rain Light Rain
12:58 PM 53.6 °F - 53.6 °F 100% 29.91 in 3.0 mi WNW 12.7 mph - 0.21 in Rain Light Rain
1:27 PM 53.6 °F - 51.8 °F 94% 29.94 in 3.0 mi West 12.7 mph - N/A Rain Light Rain
1:58 PM 52.5 °F - 50.5 °F 93% 29.91 in 10.0 mi West 12.7 mph - 0.02 in Rain Light Rain
2:11 PM 51.8 °F - 50.0 °F 94% 29.92 in 10.0 mi WNW 10.4 mph - N/A Rain Light Rain
2:58 PM 51.6 °F - 49.3 °F 92% 29.90 in 10.0 mi West 10.4 mph - 0.00 in Rain Light Rain
3:29 PM 51.8 °F - 48.2 °F 88% 29.94 in 7.0 mi WNW 16.1 mph 24.2 mph N/A   Overcast
3:58 PM 50.9 °F - 46.0 °F 83% 29.90 in 7.0 mi WNW 12.7 mph 19.6 mph 0.01 in   Overcast
4:24 PM 48.2 °F - 44.6 °F 87% 29.95 in 7.0 mi West 12.7 mph - N/A Rain Light Rain
4:44 PM 48.2 °F - 44.6 °F 87% 29.94 in 7.0 mi West 11.5 mph - N/A   Overcast
4:53 PM 48.2 °F - 44.6 °F 87% 29.94 in 7.0 mi WNW 9.2 mph - N/A Rain Light Rain
4:58 PM 48.2 °F - 44.6 °F 87% 29.95 in 7.0 mi West 10.4 mph - 0.00 in Rain Light Rain
5:11 PM 48.2 °F - 46.4 °F 93% 29.93 in 7.0 mi West 9.2 mph - N/A   Overcast
5:58 PM 49.3 °F - 45.1 °F 86% 29.94 in 10.0 mi WSW 8.1 mph - 0.00 in   Overcast
6:10 PM 50.0 °F - 44.6 °F 82% 29.95 in 10.0 mi West 9.2 mph - N/A   Overcast
6:42 PM 50.0 °F - 42.8 °F 76% 29.94 in 10.0 mi West 10.4 mph - N/A   Overcast
6:58 PM 50.2 °F - 43.9 °F 79% 29.94 in 10.0 mi West 9.2 mph - N/A   Overcast
7:58 PM 49.3 °F - 43.2 °F 79% 29.94 in 10.0 mi West 12.7 mph - N/A   Overcast
8:58 PM 48.2 °F - 41.5 °F 78% 30.00 in 10.0 mi West 12.7 mph - N/A   Overcast
9:58 PM 46.9 °F - 39.0 °F 74% 30.03 in 10.0 mi West 12.7 mph 19.6 mph N/A   Mostly Cloudy
10:58 PM 45.9 °F 41.2 °F 38.5 °F 75% 30.05 in 10.0 mi West 9.2 mph - N/A   Mostly Cloudy
11:58 PM 45.1 °F 38.8 °F 37.4 °F 74% 30.06 in 10.0 mi West 13.8 mph - N/A   Clear